Location: Newark
(44.2003°N, 3.2583°E)
Time: 11:21:24
(UTC+00:00)

Explorer 7 - Pass Details

Date: 29 October 2019
Orbit: 485 x 680 km, 50.3° (Epoch: 17 November)

Event Time Altitude Azimuth Distance (km) Brightness Sun altitude
Rises 07:21:47 0° 221° (SW) 2,652 10.2 9.4°
Reaches altitude 10° 07:24:07 10° 214° (SW) 1,737 9.4 9.8°
Maximum altitude 07:27:49 42° 144° (SE) 725 8.5 10.3°
Drops below altitude 10° 07:31:25 10° 72° (ENE) 1,682 10.0 10.9°
Sets 07:33:37 0° 65° (ENE) 2,556 10.7 11.2°
